Regional Weather Roundup
Issued by NWS

Home | Current Version | Previous Version | Text Only | Print | Product List | Glossary Off
Versions: 1 2 3 4 5 6 7 8 9 10 11 12 13 14 15 16 17 18 19 20 21 22 23 24 25 26 27 28 29 30 31 32 33 34 35 36 37 38 39 40 41 42 43 44 45 46 47 48 49 50

000
ASUS45 KTFX 201019
RWRMT
MONTANA HOURLY WEATHER ROUNDUP
NATIONAL WEATHER SERVICE GREAT FALLS MT
419 AM MDT WED AUG 20 2014

NOTE: "FAIR" INDICATES FEW OR NO CLOUDS BELOW 12000 FEET WITH NO
SIGNIFICANT WEATHER AND/OR OBSTRUCTIONS TO VISIBILITY.

* THESE STATIONS ARE NOT UNDER NWS QUALITY CONTROL. THEY DO NOT
   REPORT WEATHER SUCH AS PRECIPITATION OR FOG.

MTZ001>007-043-201100-
WEST OF THE DIVIDE
CITY           SKY/WX    TMP DP  RH WIND       PRES   REMARKS
KALISPELL      MOCLDY    55  55 100 CALM      29.78F
MISSOULA       CLOUDY    59  54  84 S6        29.84S
BUTTE          PTCLDY    48  41  77 E6        29.93R
MULLAN PASS    LGT RAIN  52  46  80 S6        29.91S
$$

MTZ008-052>055-201100-
SOUTHWEST MONTANA
CITY           SKY/WX    TMP DP  RH WIND       PRES   REMARKS
BOZEMAN        MOCLDY    54  48  80 SE5       29.86S
DILLON         MOCLDY    54  46  74 S8        29.91S
W YELLOWSTONE  FOG       45  45 100 CALM      30.02S VSB M1/4
$$

MTZ009>010-012-014-046-048-049-054-201100-
EAST SLOPES AND CENTRAL MONTANA
CITY           SKY/WX    TMP DP  RH WIND       PRES   REMARKS
CUT BANK       CLOUDY    52  48  86 SW5       29.79S
GREAT FALLS    MOCLDY    57  52  83 CALM      29.78R
HELENA         CLOUDY    63  52  68 CALM      29.81S
MALMSTROM AFB  PTCLDY    57  48  72 VRB1      29.79R
$$

MTZ011-013-016-021-035-040-045-047-050-051-201100-
NORTH CENTRAL MONTANA
CITY           SKY/WX    TMP DP  RH WIND       PRES   REMARKS
HAVRE          PTCLDY    59  54  84 SW10      29.72R
LEWISTOWN      CLOUDY    64  45  50 W8        29.80S
$$

MTZ017>020-022>027-061-062-201100-
NORTHEAST MONTANA
CITY           SKY/WX    TMP DP  RH WIND       PRES   REMARKS
GLASGOW        CLOUDY    66  54  65 N9        29.60R
GLENDIVE       MOCLDY    70  59  68 S7        29.64F
JORDAN         PTCLDY    64  52  65 SW6       29.63R
SIDNEY         MOCLDY    68  61  78 CALM      29.62F
WOLF POINT     MOCLDY    66  48  52 NE5       29.58S
$$

MTZ028>042-056>058-201100-
SOUTHCENTRAL AND SOUTHEAST MONTANA
CITY           SKY/WX    TMP DP  RH WIND       PRES   REMARKS
BAKER          PTCLDY    68  59  73 W5        29.68R
BILLINGS       MOCLDY    68  45  44 W9        29.75R
LIVINGSTON     MOCLDY    64  45  50 W21G26    29.84R
MILES CITY     MOCLDY    70  46  42 VRB3      29.63S
$$

REGIONAL REPORTS...DAKOTAS
CITY           SKY/WX    TMP DP  RH WIND       PRES   REMARKS
WILLISTON      MOCLDY    66  61  84 SE5       29.63S
DICKINSON      CLEAR     64  59  84 S9        29.66S
BEACH          N/A       66  63  90 SW7       29.67S
CROSBY         CLEAR     66  64  93 S10       29.62S
TIOGA          CLEAR     63  63 100 SE8       29.68F
WATFORD CITY   CLEAR     66  59  78 CALM      29.62F
BISMARCK       CLEAR     66  61  84 E7        29.70S
GRAND FORKS    CLEAR     63  61  93 S5        29.76S
FARGO          PTCLDY    66  63  90 SE8       29.78R
BUFFALO SD     CLOUDY    70  61  73 S8        29.65R
RAPID CITY     MOCLDY    66  55  68 SE9       29.71F
$$

REGIONAL REPORTS...WYOMING/IDAHO/WASHINGTON
CITY           SKY/WX    TMP DP  RH WIND       PRES   REMARKS
GILLETTE       CLOUDY    72  46  40 S9        29.76S
SHERIDAN       CLOUDY    72  43  35 NW5       29.75S
CODY           MOCLDY    64  45  50 W6        29.84F
YELLOWSTONE LA PTCLDY    41  39  93 CALM      30.09S
SALMON         CLOUDY    55  50  83 SW7       29.89R
MULLAN PASS    LGT RAIN  52  46  80 S6        29.91S
SAND POINT     MOCLDY    57  57 100 N6        29.74S
SPOKANE        MOCLDY    64  52  65 SE6       29.73R
$$

REGIONAL REPORTS...ALBERTA
CITY           SKY/WX    TMP DP  RH WIND       PRES   REMARKS
CALGARY        MOCLDY    55  52  90 NE3       29.79F
LETHBRIDGE     MOCLDY    55  54  96 NW3       29.77R
MEDICINE HAT   CLEAR     57  55  93 W7        29.72R
EDMONTON       MOCLDY    54  50  86 NW6       29.79R
WATERTON GATE  N/A       57  46  67 SW12G17    N/A
CARDSTON       N/A       54  52  93 SW2        N/A
MILK RIVER     N/A       52  50  93 NW8        N/A
$$

REGIONAL REPORTS...SASKATCHEWAN
CITY           SKY/WX    TMP DP  RH WIND       PRES   REMARKS
SWIFT CURRENT  CLEAR     57  54  90 N6        29.64S
MOOSE JAW      PTCLDY    61  59  93 W3        29.63S
REGINA         MOCLDY    64  57  78 SE13      29.59F
VAL MARIE      N/A       61  57  87 N7         N/A
ASSINIBOIA     N/A       59  55  87 NW6        N/A
CORONACH       N/A       55  54  96 W3         N/A

$$



USA.gov is the U.S. government's official web portal to all federal, state and local government web resources and services.